This demonstration page uses our WeatherBlox Daily Observations layout. Learn more.

Left ArrowRight Arrow

34.02893, -84.19858

Hourly Observations for April 28, 2019

Temp ( °F °C ) Dew Point ( °F °C ) Humidity (%) Winds ( mph kmh ) Pressure ( in mb ) Visibility ( mi km ) Precip ( " mm )
12:53 am 00:53 Clear 61 16.1 44 6.7 54 54 SSW 7 11 29.91 1013 10 16 0.00 0.00
1:53 am 01:53 Clear 61 16.1 44 6.7 54 54 SW 8 13 29.92 1013 10 16 0.00 0.00
2:53 am 02:53 Clear 62 16.7 45 7.2 54 54 W 7 11 29.94 1014 10 16 0.00 0.00
3:53 am 03:53 Mostly Clear 57 13.9 47 8.3 69 69 SSW 7 11 29.95 1014 10 16 0.00 0.00
4:53 am 04:53 Clear 57 13.9 47 8.3 69 69 SW 8 13 29.96 1015 10 16 0.00 0.00
5:53 am 05:53 Clear 58 14.4 47 8.3 67 67 SW 7 11 29.97 1015 10 16 0.00 0.00
6:53 am 06:53 Mostly Sunny 57 13.9 47 8.3 69 69 SW 7 11 29.98 1015 10 16 0.00 0.00
7:53 am 07:53 Partly Cloudy 58 14.4 49 9.4 72 72 SW 5 7 30.00 1016 10 16 0.00 0.03
8:53 am 08:53 Sunny 63 17.2 50 10 63 63 VRB 7 11 30.01 1016 10 16 0.00 0.00
9:53 am 09:53 Sunny 67 19.4 52 11.1 59 59 W 12 19 30.02 1017 10 16 0.00 0.00
10:53 am 10:53 Sunny 72 22.2 54 12.2 53 53 WNW 14 22 30.02 1017 10 16 0.00 0.00
11:53 am 11:53 Mostly Sunny 73 22.8 55 12.8 53 53 NW 12 19 30.03 1017 10 16 0.00 0.00
12:53 pm 12:53 Sunny 75 23.9 58 14.4 55 55 VRB 6 9 30.02 1017 10 16 0.00 0.00
1:53 pm 13:53 Mostly Sunny 79 26.1 59 15 50 50 undefined N/A 30.01 1016 10 16 0.00 0.00
2:53 pm 14:53 Mostly Cloudy 79 26.1 58 14.4 49 49 undefined N/A 29.99 1016 10 16 0.00 0.00
3:53 pm 15:53 Mostly Cloudy 80 26.7 57 13.9 45 45 W 8 13 29.98 1015 10 16 0.00 0.00
5:53 pm 17:53 Mostly Sunny 80 26.7 58 14.4 47 47 SW 9 15 29.98 1015 10 16 0.00 0.00
6:53 pm 18:53 Mostly Sunny 79 26.1 57 13.9 47 47 W 9 15 29.99 1016 10 16 0.00 0.00
7:53 pm 19:53 Mostly Sunny 76 24.4 58 14.4 54 54 WNW 6 9 30.00 1016 10 16 0.00 0.00
8:53 pm 20:53 Mostly Clear 72 22.2 58 14.4 61 61 WNW 3 6 30.01 1016 10 16 0.00 0.00
9:53 pm 21:53 Clear 67 19.4 59 15 76 76 SW 3 6 30.04 1017 10 16 0.00 0.00
10:53 pm 22:53 Clear 65 18.3 59 15 81 81 Calm 30.05 1018 10 16 0.00 0.00
11:53 pm 23:53 Clear 64 17.8 60 15.6 87 87 Calm 30.06 1018 10 16 0.00 0.00

Powered by AerisWeather